Weather History for Council Bluffs, IA

Change the Weather History Date:

Friday, October 11, 2013

  Actual Average Record
Temperature  
Mean Temperature 66 °F -  
Max Temperature 78 °F 66 °F 82 °F (2008)
Min Temperature 53 °F 44 °F 37 °F (2007)
Growing Degree Days 16 (Base 50)    
Moisture  
Dew Point 51 °F    
Average Humidity 64    
Maximum Humidity 88    
Minimum Humidity 24    
Precipitation  
Precipitation 0.00 in - - ()
Sea Level Pressure  
Sea Level Pressure 29.74 in    
Wind  
Wind Speed 16 mph (South)    
Max Wind Speed 25 mph    
Max Gust Speed 34 mph    
Visibility 10 miles    
Events      
Averages and records for this station are not official NWS values.
T = Trace of Precipitation, MM = Missing Value Source: NWS Daily Summary

Daily Weather History Graph

Daily Weather History Graph

Search for Another Location

Airport:

Trip Planner

Search our weather history database for the weather conditions in past years. The results will help you decide how hot, cold, wet, or windy it might be!

Date:

Astronomy

Oct. 11, 2013 Rise Set
Actual Time 7:30 AM CDT 6:48 PM CDT
Civil Twilight 7:02 AM CDT 7:15 PM CDT
Nautical Twilight 6:30 AM CDT 7:47 PM CDT
Astronomical Twilight 5:58 AM CDT 8:19 PM CDT
Moon 2:15 PM CDT (10/11) No Moon Set
Length of Visible Light 12h 12m
Length of Day
11h 17m
Waxing Crescent, 47% of the Moon is Illuminated
Oct 11
Waxing Crescent
Oct 11
First Quarter
Oct 18
Full
Oct 26
Last Quarter
Nov 3
New

Hourly Weather History & Observations

Time (CDT) Temp. Dew Point Humidity Pressure Visibility Wind Dir Wind Speed Gust Speed Precip Events Conditions
12:15 AM 62.6 °F 53.6 °F 72% 29.82 in 10.0 mi SSE 17.3 mph - N/A   Clear
12:35 AM 62.6 °F 53.6 °F 72% 29.80 in 10.0 mi SSE 16.1 mph 26.5 mph N/A   Clear
12:55 AM 62.6 °F 53.6 °F 72% 29.79 in 10.0 mi SSE 18.4 mph 27.6 mph N/A   Clear
1:15 AM 62.6 °F 53.6 °F 72% 29.80 in 10.0 mi SSE 17.3 mph 24.2 mph N/A   Clear
1:55 AM 62.6 °F 53.6 °F 72% 29.80 in 10.0 mi SSE 17.3 mph 24.2 mph N/A   Clear
2:15 AM 62.6 °F 53.6 °F 72% 29.81 in 10.0 mi SSE 17.3 mph - N/A   Clear
2:35 AM 62.6 °F 53.6 °F 72% 29.82 in 10.0 mi South 12.7 mph 21.9 mph N/A   Clear
2:55 AM 60.8 °F 53.6 °F 77% 29.81 in 10.0 mi South 12.7 mph - N/A   Clear
3:15 AM 60.8 °F 53.6 °F 77% 29.80 in 10.0 mi SSE 10.4 mph 19.6 mph N/A   Clear
3:35 AM 60.8 °F 53.6 °F 77% 29.79 in 10.0 mi South 10.4 mph - N/A   Clear
3:55 AM 60.8 °F 53.6 °F 77% 29.78 in 10.0 mi SSE 9.2 mph 17.3 mph N/A   Clear
4:15 AM 59.0 °F 53.6 °F 82% 29.78 in 10.0 mi SSE 10.4 mph - N/A   Scattered Clouds
4:35 AM 59.0 °F 55.4 °F 88% 29.77 in 10.0 mi SSE 13.8 mph - N/A   Overcast
4:55 AM 59.0 °F 55.4 °F 88% 29.77 in 10.0 mi SSE 12.7 mph - N/A   Mostly Cloudy
5:15 AM 59.0 °F 55.4 °F 88% 29.76 in 10.0 mi SSE 12.7 mph - N/A   Scattered Clouds
5:35 AM 59.0 °F 55.4 °F 88% 29.75 in 10.0 mi SSE 15.0 mph - N/A   Mostly Cloudy
5:55 AM 59.0 °F 55.4 °F 88% 29.74 in 10.0 mi SSE 13.8 mph 23.0 mph N/A   Mostly Cloudy
6:15 AM 59.0 °F 55.4 °F 88% 29.73 in 10.0 mi SSE 17.3 mph - N/A   Partly Cloudy
6:35 AM 60.8 °F 55.4 °F 82% 29.72 in 10.0 mi SE 18.4 mph 26.5 mph N/A   Partly Cloudy
6:55 AM 60.8 °F 55.4 °F 82% 29.70 in 10.0 mi SE 20.7 mph - N/A   Scattered Clouds
7:15 AM 60.8 °F 55.4 °F 82% 29.70 in 10.0 mi SSE 15.0 mph 27.6 mph N/A   Partly Cloudy
7:35 AM 60.8 °F 55.4 °F 82% 29.71 in 10.0 mi SSE 18.4 mph - N/A   Clear
7:55 AM 60.8 °F 55.4 °F 82% 29.71 in 10.0 mi SSE 19.6 mph - N/A   Clear
8:15 AM 60.8 °F 55.4 °F 82% 29.71 in 10.0 mi SSE 17.3 mph - N/A   Scattered Clouds
8:35 AM 60.8 °F 57.2 °F 88% 29.70 in 10.0 mi SSE 21.9 mph 29.9 mph N/A   Mostly Cloudy
8:55 AM 60.8 °F 57.2 °F 88% 29.70 in 10.0 mi SSE 19.6 mph 26.5 mph N/A   Scattered Clouds
9:15 AM 60.8 °F 57.2 °F 88% 29.69 in 10.0 mi South 17.3 mph 27.6 mph N/A   Scattered Clouds
9:35 AM 62.6 °F 57.2 °F 82% 29.70 in 10.0 mi South 15.0 mph 27.6 mph N/A   Overcast
9:55 AM 62.6 °F 57.2 °F 82% 29.70 in 10.0 mi SSE 16.1 mph 24.2 mph N/A   Overcast
10:15 AM 62.6 °F 57.2 °F 82% 29.69 in 10.0 mi SSE 19.6 mph 26.5 mph N/A   Overcast
10:35 AM 64.4 °F 57.2 °F 77% 29.70 in 10.0 mi SSE 20.7 mph - N/A   Overcast
10:55 AM 64.4 °F 59.0 °F 83% 29.70 in 10.0 mi South 16.1 mph - N/A   Overcast
11:15 AM 64.4 °F 59.0 °F 83% 29.70 in 10.0 mi South 18.4 mph 25.3 mph N/A   Overcast
11:35 AM 64.4 °F 59.0 °F 83% 29.70 in 10.0 mi South 19.6 mph - N/A   Overcast
11:55 AM 66.2 °F 59.0 °F 78% 29.69 in 10.0 mi SSE 19.6 mph 25.3 mph N/A   Overcast
12:15 PM 69.8 °F 60.8 °F 73% 29.68 in 10.0 mi SSE 20.7 mph - N/A   Mostly Cloudy
12:35 PM 69.8 °F 59.0 °F 68% 29.68 in 10.0 mi South 24.2 mph 33.4 mph N/A   Mostly Cloudy
12:55 PM 71.6 °F 60.8 °F 69% 29.68 in 10.0 mi South 18.4 mph 28.8 mph N/A   Mostly Cloudy
1:15 PM 71.6 °F 59.0 °F 64% 29.66 in 10.0 mi South 19.6 mph 34.5 mph N/A   Mostly Cloudy
1:35 PM 73.4 °F 60.8 °F 65% 29.65 in 10.0 mi South 21.9 mph 29.9 mph N/A   Partly Cloudy
1:55 PM 73.4 °F 59.0 °F 61% 29.65 in 10.0 mi South 23.0 mph 32.2 mph N/A   Clear
2:15 PM 75.2 °F 59.0 °F 57% 29.64 in 10.0 mi South 21.9 mph 31.1 mph N/A   Clear
2:35 PM 75.2 °F 57.2 °F 53% 29.64 in 10.0 mi South 24.2 mph 32.2 mph N/A   Clear
2:55 PM 77.0 °F 55.4 °F 47% 29.64 in 10.0 mi South 25.3 mph 31.1 mph N/A   Partly Cloudy
3:15 PM 75.2 °F 53.6 °F 47% 29.64 in 10.0 mi South 21.9 mph 29.9 mph N/A   Scattered Clouds
3:35 PM 78.8 °F 51.8 °F 39% 29.64 in 10.0 mi SSW 18.4 mph 28.8 mph N/A   Scattered Clouds
3:55 PM 78.8 °F 44.6 °F 30% 29.65 in 10.0 mi SW 23.0 mph 29.9 mph N/A   Clear
4:15 PM 78.8 °F 42.8 °F 28% 29.65 in 10.0 mi SSW 17.3 mph 28.8 mph N/A   Clear
4:35 PM 78.8 °F 42.8 °F 28% 29.66 in 10.0 mi SSW 18.4 mph 29.9 mph N/A   Clear
4:55 PM 78.8 °F 39.2 °F 24% 29.67 in 10.0 mi SSW 19.6 mph 29.9 mph N/A   Clear
5:15 PM 77.0 °F 39.2 °F 26% 29.67 in 10.0 mi SW 18.4 mph 28.8 mph N/A   Clear
5:35 PM 77.0 °F 41.0 °F 28% 29.68 in 10.0 mi SSW 15.0 mph 27.6 mph N/A   Clear
5:55 PM 75.2 °F 39.2 °F 27% 29.69 in 10.0 mi SSW 15.0 mph 23.0 mph N/A   Clear
6:15 PM 75.2 °F 39.2 °F 27% 29.70 in 10.0 mi SSW 12.7 mph 20.7 mph N/A   Clear
6:35 PM 73.4 °F 39.2 °F 29% 29.71 in 10.0 mi SSW 10.4 mph 17.3 mph N/A   Clear
6:55 PM 71.6 °F 39.2 °F 31% 29.72 in 10.0 mi SW 9.2 mph 16.1 mph N/A   Clear
7:15 PM 71.6 °F 39.2 °F 31% 29.73 in 10.0 mi SSW 10.4 mph - N/A   Clear
7:35 PM 68.0 °F 41.0 °F 37% 29.75 in 10.0 mi SW 8.1 mph - N/A   Clear
7:55 PM 68.0 °F 44.6 °F 43% 29.77 in 10.0 mi West 17.3 mph 24.2 mph N/A   Clear
8:15 PM 66.2 °F 46.4 °F 49% 29.78 in 10.0 mi West 11.5 mph 17.3 mph N/A   Clear
8:35 PM 66.2 °F 46.4 °F 49% 29.79 in 10.0 mi WNW 10.4 mph 18.4 mph N/A   Clear
8:55 PM 62.6 °F 46.4 °F 55% 29.82 in 10.0 mi NW 17.3 mph 23.0 mph N/A   Clear
9:15 PM 60.8 °F 44.6 °F 55% 29.82 in 10.0 mi NW 12.7 mph 25.3 mph N/A   Clear
9:35 PM 59.0 °F 44.6 °F 59% 29.83 in 10.0 mi NW 18.4 mph - N/A   Clear
9:55 PM 59.0 °F 42.8 °F 55% 29.84 in 10.0 mi WNW 16.1 mph 24.2 mph N/A   Clear
10:15 PM 57.2 °F 42.8 °F 59% 29.85 in 10.0 mi WNW 15.0 mph 25.3 mph N/A   Clear
10:35 PM 55.4 °F 42.8 °F 63% 29.86 in 10.0 mi NW 11.5 mph 18.4 mph N/A   Clear
10:55 PM 55.4 °F 42.8 °F 63% 29.87 in 10.0 mi NW 11.5 mph 18.4 mph N/A   Clear
11:15 PM 55.4 °F 42.8 °F 63% 29.87 in 10.0 mi NW 11.5 mph 17.3 mph N/A   Clear
11:35 PM 53.6 °F 42.8 °F 67% 29.88 in 10.0 mi Variable 6.9 mph 13.8 mph N/A   Clear
11:55 PM 53.6 °F 42.8 °F 67% 29.89 in 10.0 mi NW 8.1 mph - N/A   Clear